Location: Sundre
(51.7972°N, 114.6405°W)
Time: 03:40:38
(UTC-06:00)

Envisat - Visible Passes

Search period start: 19 March 2019 00:00
Search period end: 29 March 2019 00:00
Orbit: 764 x 766 km, 98.2° (Epoch: 19 March)

Date Brightness Start Highest point End Pass type
(mag) Time Alt. Az. Time Alt. Az. Time Alt. Az.
19 Mar 5.4 21:14:21 10° SSW 21:18:30 25° W 21:22:40 10° NW visible
20 Mar 4.2 20:36:34 10° S 20:41:27 48° W 20:46:23 10° NNW visible
21 Mar 5.9 21:41:21 10° WSW 21:44:21 16° W 21:47:24 10° NW visible
22 Mar 5.1 21:02:44 10° SSW 21:07:10 30° W 21:11:39 10° NNW visible
23 Mar 3.8 20:25:11 10° S 20:30:12 58° W 20:35:14 10° NNW visible
24 Mar 5.8 21:29:25 10° SW 21:33:00 19° W 21:36:36 10° NW visible
25 Mar 4.7 20:51:12 10° SSW 20:55:53 36° W 21:00:34 10° NNW visible
26 Mar 6.2 21:57:10 10° WSW 21:58:55 12° W 22:00:40 10° WNW visible
27 Mar 5.5 21:17:39 10° SW 21:21:39 23° W 21:25:40 10° NW visible
28 Mar 4.3 20:39:44 10° S 20:44:35 44° W 20:49:28 10° NNW visible
